Tracking 27107 objects as of 21-Mar-2023
HD Live streaming from Space Station
objects crossing your sky now

STARLINK-3355

Track STARLINK-3355 now!
10-day predictions
STARLINK-3355 is classified as:


NORAD ID: 50808
Int'l Code: 2022-001F
Perigee: 545.7 km
Apogee: 547.9 km
Inclination: 53.2 °
Period: 95.4 minutes
Semi major axis: 6917 km
RCS: Unknown
Launch date: January 6, 2022
Source: United States (US)
Launch site: AIR FORCE EASTERN TEST RANGE (AFETR)
Your satellite tracking list
Your tracking list is empty




NASA's NSSDC Master Catalog

Two Line Element Set (TLE):
1 50808U 22001F   23080.12550949  .00011150  00000-0  71719-3 0  9990
2 50808  53.2165 347.9252 0001596  70.3407 289.7757 15.08856210 66811
Source of the keplerian elements: AFSPC